This is the latest recevied weather packets stored in our database for station/object K9VSK-9. If no packets are shown the sender has not sent any weather packets the latest 1 day(s).
| Time | Temp. | Humidity | Pressure | Rain* | Wind** | Luminosity | Snow |
|---|---|---|---|---|---|---|---|
| 1777968518 | 11.11° C | 72% | 1006.6 hPa | 0 mm | 0.89 m/s, 360° | - | - |
| 1777968218 | 11.67° C | 73% | 1006.4 hPa | 0 mm | 1.34 m/s, 136° | - | - |
| 1777967918 | 11.67° C | 72% | 1006 hPa | 0 mm | 1.34 m/s, 82° | - | - |
| 1777967617 | 11.67° C | 72% | 1005.9 hPa | 0 mm | 3.58 m/s, 19° | - | - |
| 1777967317 | 11.67° C | 71% | 1005.7 hPa | 0 mm | 1.79 m/s, 24° | - | - |
| 1777967017 | 11.11° C | 72% | 1005.6 hPa | 0 mm | 2.24 m/s, 360° | - | - |
| 1777966717 | 11.11° C | 72% | 1005.6 hPa | 0 mm | 2.68 m/s, 28° | - | - |
| 1777966416 | 11.67° C | 72% | 1005.5 hPa | 0 mm | 2.24 m/s, 14° | - | - |
| 1777966116 | 11.67° C | 71% | 1005.5 hPa | 0 mm | 2.24 m/s, 298° | - | - |
| 1777965816 | 11.67° C | 71% | 1005.4 hPa | 0 mm | 2.24 m/s, 355° | - | - |
| 1777965515 | 11.67° C | 71% | 1005.4 hPa | 0 mm | 1.79 m/s, 21° | - | - |
| 1777965413 | 11.67° C | 71% | 1005.2 hPa | 0 mm | 1.79 m/s, 38° | - | - |
| 1777965215 | 11.67° C | 71% | 1005.2 hPa | 0 mm | 1.79 m/s, 38° | - | - |
| 1777964915 | 11.67° C | 70% | 1005.2 hPa | 0 mm | 0.89 m/s, 360° | - | - |
| 1777964615 | 11.67° C | 71% | 1005.3 hPa | 0 mm | 1.34 m/s, 119° | - | - |
| 1777964314 | 12.22° C | 70% | 1005.1 hPa | 0 mm | 0.45 m/s, 291° | - | - |
| 1777964047 | 11.67° C | 71% | 1005.1 hPa | 0 mm | 0.89 m/s, 360° | - | - |
| 1777964014 | 11.67° C | 71% | 1005.1 hPa | 0 mm | 0.89 m/s, 360° | - | - |
| 1777963714 | 12.22° C | 72% | 1005 hPa | 0 mm | 0 m/s | - | - |
| 1777963413 | 12.22° C | 73% | 1004.9 hPa | 0 mm | 0.45 m/s, 360° | - | - |
| 1777963113 | 12.78° C | 72% | 1004.6 hPa | 0 mm | 0.89 m/s, 287° | - | - |
| 1777962813 | 12.78° C | 71% | 1004.4 hPa | 0 mm | 1.34 m/s, 34° | - | - |
| 1777962513 | 12.78° C | 71% | 1004.3 hPa | 0 mm | 4.92 m/s, 9° | - | - |
| 1777962212 | 12.78° C | 72% | 1004.3 hPa | 0 mm | 1.34 m/s, 350° | - | - |
| 1777961912 | 12.78° C | 71% | 1004.1 hPa | 0 mm | 0.89 m/s, 341° | - | - |
* Rain latest hour (hover to see other rain measurements)
** Current wind speed in m/s (hover to see current wind gust speed)